Weather History for KINL - December, 2013

Change the Weather History Date:

Wednesday, December 11, 2013

  Actual Average Record
Temperature  
Mean Temperature -15 °F 11 °F  
Max Temperature -3 °F 20 °F 51 °F (1913)
Min Temperature -28 °F 2 °F -30 °F (1977)
Degree Days  
Heating Degree Days 80 54  
Month to date heating degree days 714 564  
Since 1 July heating degree days 3072 3025  
Cooling Degree Days 0 0  
Month to date cooling degree days 0 0  
Year to date cooling degree days 224 192  
Moisture  
Dew Point -22 °F    
Average Humidity 67    
Maximum Humidity 78    
Minimum Humidity 56    
Precipitation  
Precipitation T in 0.02 in 0.42 in (1949)
Month to date precipitation 1.00 0.31  
Year to date precipitation 31.40 23.72  
Snow  
Snow T in 0.50 in 4.50 in (1983)
Month to date snowfall 18.0 5.4  
Since 1 July snowfall 28.9 21.4  
Snow Depth 11.00 in    
Sea Level Pressure  
Sea Level Pressure 30.38 in    
Wind  
Wind Speed 6 mph (WSW)    
Max Wind Speed 13 mph    
Max Gust Speed 17 mph    
Visibility 10 miles    
Events      
T = Trace of Precipitation, MM = Missing Value Source: NWS Daily Summary

Daily Weather History Graph

Daily Weather History Graph

Search for Another Location

Airport or City:

Trip Planner

Search our weather history database for the weather conditions in past years. The results will help you decide how hot, cold, wet, or windy it might be!

Date:

Astronomy

Dec. 11, 2013 Rise Set
Actual Time 7:55 AM CST 4:18 PM CST
Civil Twilight 7:19 AM CST 4:54 PM CST
Nautical Twilight 6:39 AM CST 5:34 PM CST
Astronomical Twilight 6:01 AM CST 6:12 PM CST
Moon 1:12 PM CST (12/11) 1:55 AM CST (12/11)
Length of Visible Light 9h 35m
Length of Day
8h 22m
Waxing Gibbous, 72% of the Moon is Illuminated
Dec 11
Waxing Gibbous
Dec 17
Full
Dec 25
Last Quarter
Jan 1
New
Jan 7
First Quarter

Hourly Weather History & Observations

Time (CST) Temp. Windchill Dew Point Humidity Pressure Visibility Wind Dir Wind Speed Gust Speed Precip Events Conditions
12:55 AM -14.1 °F -29.9 °F -20.9 °F 71% 30.31 in 10.0 mi WNW 6.9 mph - N/A   Clear
1:55 AM -15.0 °F -32.4 °F -22.0 °F 71% 30.33 in 10.0 mi WNW 8.1 mph - N/A   Clear
2:55 AM -17.0 °F -31.7 °F -23.1 °F 74% 30.36 in 10.0 mi West 5.8 mph - N/A   Clear
3:55 AM -18.0 °F -34.7 °F -24.0 °F 74% 30.38 in 10.0 mi West 6.9 mph - N/A   Clear
4:55 AM -18.9 °F -34.0 °F -25.1 °F 74% 30.40 in 10.0 mi West 5.8 mph - N/A   Clear
5:55 AM -20.0 °F -35.3 °F -26.0 °F 74% 30.43 in 10.0 mi WSW 5.8 mph - N/A   Clear
6:55 AM -20.0 °F -37.1 °F -27.0 °F 70% 30.43 in 10.0 mi WSW 6.9 mph - N/A   Clear
7:55 AM -23.1 °F -38.9 °F -29.0 °F 74% 30.45 in 10.0 mi SW 5.8 mph - N/A   Clear
8:55 AM -22.0 °F -35.6 °F -27.9 °F 74% 30.47 in 10.0 mi WSW 4.6 mph - N/A   Clear
9:55 AM -16.1 °F -32.3 °F -22.0 °F 74% 30.46 in 10.0 mi West 6.9 mph - N/A   Clear
10:55 AM -11.0 °F -24.6 °F -18.0 °F 71% 30.45 in 10.0 mi West 5.8 mph - N/A   Clear
11:55 AM -7.1 °F -22.8 °F -15.0 °F 68% 30.43 in 10.0 mi West 8.1 mph - N/A   Clear
12:55 PM -5.1 °F -22.5 °F -15.0 °F 62% 30.41 in 10.0 mi SSW 10.4 mph - N/A   Clear
1:55 PM -2.9 °F -17.7 °F -14.1 °F 59% 30.39 in 10.0 mi WSW 8.1 mph - N/A   Clear
2:55 PM -2.9 °F -19.8 °F -14.1 °F 59% 30.40 in 10.0 mi WSW 10.4 mph 16.1 mph N/A   Clear
3:55 PM -5.1 °F -21.5 °F -15.0 °F 62% 30.39 in 10.0 mi WSW 9.2 mph - N/A   Clear
4:55 PM -9.0 °F -22.3 °F -17.0 °F 68% 30.37 in 10.0 mi SSW 5.8 mph - N/A   Clear
5:55 PM -9.9 °F -23.4 °F -17.0 °F 71% 30.36 in 10.0 mi SW 5.8 mph - N/A   Clear
6:55 PM -9.9 °F -23.4 °F -17.0 °F 71% 30.35 in 10.0 mi SW 5.8 mph - N/A   Scattered Clouds
7:55 PM -14.1 °F -26.3 °F -20.9 °F 71% 30.34 in 10.0 mi SSW 4.6 mph - N/A   Partly Cloudy
8:55 PM -16.1 °F -28.6 °F -22.0 °F 74% 30.31 in 10.0 mi SSW 4.6 mph - N/A   Partly Cloudy
9:55 PM -20.9 °F - -27.0 °F 73% 30.30 in 10.0 mi Calm Calm - N/A   Clear
10:55 PM -22.0 °F - -27.9 °F 74% 30.28 in 10.0 mi Calm Calm - N/A   Clear
11:55 PM -24.0 °F - -29.0 °F 77% 30.27 in 10.0 mi Calm Calm - N/A   Clear